Back to catalog

COSMOS 2234

GLONASS

AliveNavigationMEO
NORAD 22512·PAYLOAD·🇷🇺 Russia

Launched Feb 17, 1993 from Baikonur Cosmodrome

Loading…

Next Passes (next 24 hours)

TLE

FreshSource: Space-Track

Epoch: Sep 14, 2026, 13:31 UTC

1 22512U 93010A   26257.56362380 -.00000014  00000-0  00000-0 0  9996
2 22512  64.9610  67.0166 0022875 213.7850 141.8424  2.13103582261037

Track COSMOS 2234 in real time with AllMySat

Download on the App Store